GFSSGP_700_rhum_060.txt.gz
RH
8 10 13 15 24 28 26 20 21 20 22 30 26 32 33 30 32 54 60 56 53 51 47 65 79 98 98 92 74 72 57 34 25 17 7 4 6 11 14 14 13 13 13 13 15 19 20 19 19
9 13 19 26 29 28 23 18 19 22 22 28 25 28 46 42 39 56 56 54 49 56 56 49 56 65 98 100 94 92 70 38 21 11 5 5 8 12 15 15 14 15 16 20 22 22 21 21 22
9 28 30 33 32 26 22 22 28 26 32 25 40 40 41 49 48 44 65 50 49 51 44 56 86 55 62 94 100 98 75 51 21 10 6 8 10 13 16 16 16 19 23 24 24 26 27 28 29
17 24 30 31 27 24 25 26 28 19 20 20 22 39 38 40 49 47 42 44 48 49 40 56 92 78 74 87 98 98 90 59 22 9 7 11 14 16 18 17 20 26 27 31 32 34 32 32 36
25 28 32 30 27 24 30 41 40 19 20 28 33 47 48 48 49 47 44 61 55 63 61 63 90 97 98 86 97 99 98 58 20 9 13 15 18 19 20 21 26 30 34 37 38 38 35 38 40
28 30 32 28 24 22 26 32 29 27 29 32 41 40 54 57 55 51 52 68 57 64 80 72 91 99 98 100 92 100 94 49 16 13 17 20 22 23 23 27 33 37 40 41 44 45 39 35 35
26 30 27 25 22 25 33 32 25 27 30 41 43 50 45 46 47 43 61 68 67 95 88 71 74 85 99 88 97 100 88 32 13 17 22 25 25 28 30 36 39 45 46 48 44 41 38 34 30
23 31 23 24 26 26 35 31 32 38 40 40 43 51 54 50 48 49 69 55 58 90 92 82 81 85 90 93 88 98 89 88 69 31 24 32 29 32 38 42 48 52 51 44 44 45 44 37 31
28 30 24 23 23 29 29 37 31 40 50 56 52 49 41 42 60 62 62 65 61 66 72 82 95 98 94 99 98 100 97 69 18 28 30 35 32 41 44 47 55 56 50 47 44 44 45 44 37
27 26 23 22 23 29 28 29 28 45 46 48 45 48 45 52 64 66 68 64 62 63 55 75 82 66 74 97 90 90 94 73 23 29 36 38 39 48 49 56 61 54 52 50 47 46 49 45 38
24 24 23 22 23 26 29 31 30 45 48 44 43 38 51 67 59 54 57 64 61 64 66 66 79 80 92 99 90 84 85 84 27 40 35 51 48 54 55 56 58 50 59 54 52 52 54 53 44
26 29 30 23 23 27 28 28 33 42 46 42 45 31 48 72 77 70 68 59 57 54 72 87 83 87 93 99 100 93 90 86 66 54 45 74 62 60 60 65 59 67 58 57 56 57 60 62 53
34 33 32 26 24 25 25 33 35 39 44 38 43 29 28 54 66 45 36 34 36 95 95 100 96 99 98 100 100 100 97 98 81 59 56 73 70 75 84 71 67 61 52 56 58 58 62 51 46
28 34 32 25 25 24 25 30 34 37 44 37 28 28 29 25 29 26 26 27 61 96 98 98 95 99 98 99 99 100 99 97 78 57 59 66 80 89 90 66 59 54 51 59 61 61 60 44 44
33 34 26 24 24 23 25 31 33 39 38 37 36 33 34 26 30 26 25 24 64 100 96 100 88 88 100 96 100 99 100 100 81 57 62 75 88 91 75 60 60 54 52 54 62 63 57 47 51
30 32 32 19 21 23 27 32 33 37 39 41 37 35 25 32 28 31 27 23 28 56 99 100 100 98 99 99 98 100 100 100 98 93 74 76 93 84 64 66 58 57 56 52 62 60 50 44 49
18 17 24 32 27 27 26 28 32 41 45 43 38 35 29 34 28 28 25 25 29 34 66 99 98 100 99 99 100 100 100 100 100 94 94 90 84 82 71 62 61 61 58 54 63 57 54 49 45
13 28 31 33 29 27 25 29 36 43 45 48 30 39 46 40 31 30 23 23 33 26 37 64 98 99 98 97 98 100 100 100 100 100 100 90 90 72 62 62 65 57 54 59 68 64 60 63 61
12 32 35 35 34 35 33 34 39 44 42 41 34 27 45 76 33 30 28 33 35 35 29 35 59 80 79 94 98 98 99 99 99 98 95 79 74 74 64 59 56 51 57 77 74 68 67 73 74
24 34 35 36 33 34 33 32 31 49 36 38 43 26 42 69 39 34 34 34 31 35 39 34 28 35 42 58 81 98 100 100 99 94 78 66 75 68 58 57 57 56 68 79 68 65 73 82 82
35 35 37 32 26 31 34 34 33 44 44 47 56 44 32 53 44 32 33 33 30 32 34 41 35 27 28 32 41 54 65 75 75 64 60 67 69 58 56 55 53 57 72 68 66 66 76 84 89
38 37 36 31 33 29 32 36 31 32 39 42 43 44 36 33 62 35 32 29 28 32 33 35 37 39 32 29 31 30 35 36 40 54 58 58 53 51 52 51 56 66 61 64 70 80 83 89 92
38 38 35 35 35 36 31 29 28 32 38 41 41 37 41 29 44 34 28 29 30 31 32 33 37 41 42 40 38 33 33 30 32 35 37 39 42 46 47 55 67 64 71 82 92 91 91 99 98
39 38 33 34 33 44 35 32 30 30 31 30 39 40 36 38 25 49 44 33 34 34 34 36 35 38 44 47 46 46 49 49 49 49 50 54 57 59 64 66 71 80 82 87 94 96 96 93 95
37 36 41 47 49 57 35 37 33 29 32 32 31 40 38 40 40 38 48 50 33 31 32 33 33 34 36 40 44 47 52 55 55 58 59 61 64 65 64 72 77 82 92 97 99 99 90 88 90
36 35 39 56 68 54 38 42 35 34 34 33 32 34 38 42 40 40 41 44 41 42 32 32 32 34 36 38 41 44 50 57 62 69 71 77 75 76 78 78 82 91 100 99 98 78 85 93 94
34 34 33 35 46 60 48 46 42 36 33 35 34 33 39 40 37 38 44 43 45 49 50 42 36 33 36 42 44 46 48 51 60 66 76 75 72 84 89 81 79 90 90 99 84 81 79 84 81
36 33 39 40 57 64 50 41 39 37 34 31 33 33 33 36 38 39 46 47 47 48 51 54 57 58 44 38 40 47 54 54 61 70 88 79 90 87 72 74 97 99 85 87 75 73 80 74 70
34 35 39 39 43 63 64 44 35 35 33 30 32 28 29 30 33 32 39 43 49 51 53 54 57 63 62 56 58 57 52 53 58 81 88 94 99 92 88 97 98 84 74 69 68 60 62 71 82
35 33 35 39 53 48 49 54 40 37 35 34 30 31 26 28 30 40 42 40 46 52 51 54 57 60 62 66 66 75 94 92 98 100 85 97 100 88 88 91 74 57 55 50 56 61 73 87 98

GFSSGP_700_rhum_063.txt.gz
RH
7 8 8 10 18 22 22 22 25 30 24 27 36 29 32 39 36 43 41 48 61 60 58 61 76 85 68 98 97 88 86 59 40 11 7 5 5 5 6 9 11 11 11 11 12 16 19 19 18
7 12 13 21 28 28 25 24 28 25 23 26 29 34 33 37 44 47 57 53 53 57 51 53 63 70 64 61 99 97 100 74 40 8 7 7 7 8 10 11 12 11 11 12 17 20 20 20 19
9 26 26 29 28 28 27 28 29 44 36 31 25 26 35 41 38 44 49 50 50 52 60 63 61 66 76 68 90 96 100 79 28 7 9 11 12 12 13 13 12 12 14 18 21 20 22 24 25
14 27 26 28 27 24 24 34 31 37 30 30 29 35 37 42 43 45 44 45 44 50 45 47 63 82 88 79 78 77 90 91 18 10 14 17 17 16 15 14 14 14 19 23 24 26 28 30 32
25 23 26 27 23 23 25 28 30 32 32 29 35 40 49 49 46 46 48 46 51 58 64 62 70 84 93 99 96 99 99 73 18 15 19 21 18 19 18 16 18 22 24 26 30 32 33 35 37
17 27 23 23 24 26 29 35 33 28 29 26 36 40 45 52 52 48 47 45 62 68 76 90 89 99 95 99 94 100 98 87 17 21 23 22 22 22 20 21 25 28 29 31 34 34 38 40 40
28 26 22 23 25 28 33 34 30 30 27 28 36 39 47 53 53 48 52 58 63 74 77 77 91 98 98 100 99 94 96 87 26 25 26 23 22 23 22 27 31 36 36 35 38 39 36 38 39
27 26 22 25 24 25 34 33 30 29 31 35 42 40 40 35 36 49 61 71 64 69 93 94 98 87 78 85 99 93 99 96 42 28 28 25 26 25 29 32 38 43 41 41 37 37 40 39 44
26 29 25 24 24 24 28 33 31 30 35 44 46 44 41 29 33 62 78 75 65 67 83 96 97 88 84 94 98 100 100 88 62 45 36 34 30 30 34 39 44 49 47 43 40 38 41 39 38
28 26 24 23 24 26 26 35 32 31 33 43 46 46 43 28 33 67 75 78 73 73 83 87 85 86 82 83 90 99 98 98 95 75 79 50 36 36 39 45 50 52 47 47 45 41 41 38 35
25 22 25 22 31 26 26 33 32 31 34 42 42 42 27 35 46 52 67 72 70 70 63 70 85 97 90 86 72 85 87 97 98 98 80 42 39 40 45 48 52 51 45 46 46 45 47 46 40
25 25 30 27 32 26 27 32 32 32 36 37 40 32 25 35 54 56 58 65 69 76 97 78 78 98 93 99 97 96 86 86 87 90 76 54 39 43 50 54 54 49 44 42 52 55 52 51 48
31 29 28 31 31 26 26 28 32 28 35 37 36 25 25 34 54 56 50 49 40 38 90 95 87 95 92 99 98 97 85 92 56 52 80 50 42 52 59 62 54 48 45 50 55 53 54 53 52
32 30 27 29 29 26 26 25 26 29 34 36 36 26 30 25 24 20 20 23 28 45 86 83 97 83 99 98 99 98 99 95 65 38 75 56 54 54 60 62 57 53 52 48 47 50 57 47 41
30 25 21 24 28 26 25 24 24 27 34 39 34 26 26 30 25 23 27 22 28 52 89 90 96 98 98 95 100 99 99 98 62 47 74 63 70 65 72 83 68 60 54 46 49 54 62 54 45
25 26 23 25 27 28 29 24 23 28 32 37 40 26 21 19 25 28 28 20 26 31 83 100 91 91 100 98 99 100 100 99 90 99 93 78 81 95 91 96 80 61 54 50 55 60 62 52 48
26 22 20 23 31 34 33 28 26 26 35 41 41 38 22 17 16 26 29 23 30 29 44 85 99 99 97 100 98 100 100 97 99 100 99 99 98 99 92 91 67 64 51 52 53 65 64 61 58
19 27 20 30 34 33 34 26 29 29 36 40 38 40 22 20 16 28 30 27 30 31 28 84 98 100 100 99 100 100 99 100 100 99 98 99 97 97 88 70 68 60 56 56 55 69 65 62 68
20 24 24 35 35 37 33 36 35 35 39 36 33 28 27 22 22 25 30 31 30 34 22 42 78 80 97 98 100 100 100 100 100 99 96 95 98 86 85 74 66 58 60 60 65 70 61 63 72
27 21 19 34 36 36 35 36 34 33 28 35 36 36 30 18 23 24 31 33 27 34 31 20 30 56 80 92 98 99 100 100 100 100 99 100 96 88 83 78 65 58 56 64 68 71 65 68 74
20 18 29 36 35 33 32 32 34 33 32 36 36 37 40 36 23 26 30 33 29 34 32 31 28 21 27 47 79 86 98 99 100 100 100 100 99 87 81 76 63 54 52 54 65 78 72 75 79
21 22 35 37 40 35 33 42 33 33 30 33 36 36 34 33 22 22 29 29 26 33 32 32 33 33 26 21 26 31 49 63 92 99 100 90 95 89 74 67 59 56 52 55 71 76 73 79 84
22 34 38 40 42 38 37 37 31 28 28 30 32 32 33 32 32 20 23 27 30 29 32 30 32 33 34 34 29 29 31 34 51 60 72 65 68 70 62 58 60 56 55 58 69 72 80 88 97
33 38 38 41 41 48 37 36 35 32 29 26 26 32 37 36 24 26 28 30 29 28 30 30 27 28 32 35 38 38 34 33 35 39 45 56 61 62 53 53 55 51 55 66 70 82 91 97 100
41 42 49 52 51 53 36 39 36 32 28 27 24 32 32 34 37 28 23 25 27 26 28 29 29 28 29 31 35 41 44 46 44 40 39 39 40 43 45 46 52 57 64 74 83 91 97 99 97
37 38 47 59 63 52 35 45 34 35 36 33 33 32 32 32 36 38 28 29 36 35 30 29 30 30 31 33 34 38 46 49 51 55 57 58 60 61 62 68 76 82 85 89 92 99 99 94 91
36 43 39 40 45 60 44 43 40 40 40 33 31 34 33 34 38 39 36 43 46 49 49 48 43 33 32 33 38 40 42 48 57 65 68 69 72 73 74 78 82 85 90 100 100 97 98 80 77
41 39 40 44 58 66 50 49 36 32 28 36 33 33 34 33 35 36 35 39 43 46 48 51 54 52 53 41 35 39 44 48 58 66 72 83 86 88 96 97 93 93 88 97 98 89 95 77 65
42 42 41 40 38 52 56 47 36 35 26 36 32 30 32 32 30 31 36 37 41 47 49 50 52 55 54 52 56 45 43 52 60 66 68 78 99 98 99 96 93 88 94 91 93 80 78 67 61
38 38 38 43 52 44 45 45 40 35 39 34 35 33 33 29 29 28 31 32 38 42 48 50 53 56 58 55 56 78 64 73 92 94 92 85 99 91 97 84 80 89 98 99 80 66 74 68 66

GFSSGP_700_rhum_069.txt.gz
RH
8 5 6 9 17 23 24 26 25 28 28 28 28 29 29 38 42 35 30 30 39 49 63 65 58 53 60 68 78 81 79 63 66 70 35 35 74 23 10 7 9 12 12 11 11 11 13 15 16
8 6 13 20 23 24 27 29 24 31 27 25 25 26 28 31 36 45 34 34 45 55 56 77 82 75 76 75 78 87 67 59 62 69 47 52 40 12 8 7 13 13 12 12 11 14 17 17 16
8 10 19 22 24 25 25 33 26 29 27 26 26 28 28 28 40 48 46 49 52 55 91 99 88 92 86 83 92 86 75 71 57 53 51 36 19 8 8 10 16 14 12 12 15 18 18 19 18
9 10 22 23 23 26 27 31 28 27 27 26 27 29 30 39 44 49 50 53 56 54 82 83 59 78 80 90 99 89 91 76 68 54 58 29 14 8 8 17 18 16 15 16 19 19 20 23 22
10 12 19 22 25 28 26 29 29 26 26 28 29 34 38 39 41 48 52 53 58 58 73 87 86 87 96 92 97 89 86 85 82 63 62 54 9 8 17 24 20 17 19 21 21 23 24 25 26
11 11 18 22 26 29 30 29 28 28 28 30 34 39 44 45 46 49 59 60 62 57 70 86 87 90 96 98 97 99 96 94 84 72 78 32 9 19 22 21 20 20 24 23 26 27 29 33 34
11 12 15 22 25 30 31 32 30 30 30 34 38 43 46 49 50 45 42 52 55 58 66 82 93 89 87 98 97 100 98 100 100 96 73 32 15 33 22 21 20 26 28 30 34 35 37 35 36
13 18 18 20 25 24 24 26 26 29 29 32 40 47 49 50 54 56 46 37 48 60 68 82 87 98 100 100 100 99 98 99 96 98 29 34 19 23 24 23 27 30 36 42 43 40 39 37 37
15 21 17 18 25 25 25 25 24 26 27 30 38 48 47 46 47 49 45 46 66 74 77 80 82 97 98 88 99 100 100 100 99 92 60 29 25 26 24 28 33 38 45 48 45 38 36 34 34
16 16 15 19 26 26 28 26 24 25 27 29 39 47 46 46 31 34 52 62 76 82 70 79 88 96 95 100 100 100 100 100 98 96 50 37 33 27 26 36 41 48 50 47 42 41 38 36 38
16 14 15 23 25 26 30 26 25 25 24 27 38 41 43 37 29 56 66 72 79 78 77 81 85 93 98 99 99 98 99 99 100 98 50 45 38 30 34 43 48 53 50 44 44 45 39 36 34
14 14 15 20 24 25 27 28 26 24 24 26 31 36 41 30 28 38 60 53 55 59 53 66 71 86 100 100 99 89 96 100 100 95 69 51 37 34 42 48 53 53 51 50 47 45 39 35 35
15 13 13 20 20 22 24 29 28 21 23 26 28 35 42 31 29 26 26 23 28 28 29 34 88 96 97 88 95 94 98 100 100 98 50 48 41 39 56 61 59 55 56 53 46 53 48 44 42
16 15 15 14 19 24 24 28 29 19 22 24 25 37 44 37 30 30 25 27 25 25 31 42 99 90 97 98 96 97 97 97 99 98 52 44 51 50 66 66 61 57 56 56 59 52 49 50 50
16 16 14 15 19 21 21 21 22 23 22 23 27 35 45 30 25 26 27 29 25 28 30 41 99 85 96 97 99 100 99 99 100 100 82 48 54 73 72 74 66 58 56 55 56 51 51 54 49
19 20 17 12 27 27 26 25 29 30 27 27 29 38 46 26 22 19 24 30 28 26 31 33 77 81 94 99 100 100 100 100 100 100 100 94 95 74 85 78 70 62 57 63 58 51 59 58 49
24 26 20 14 16 22 32 28 33 28 32 32 36 39 48 38 20 20 20 30 28 28 30 26 73 100 100 100 98 100 100 100 100 100 100 94 77 84 89 82 75 73 70 70 67 62 59 61 55
22 19 16 14 14 20 30 34 30 33 35 34 34 37 46 34 21 24 28 30 27 31 28 27 62 100 100 99 99 100 100 100 100 100 100 93 85 85 95 93 87 87 82 74 75 69 65 67 59
22 22 20 18 19 20 29 36 31 27 28 34 33 34 44 44 29 25 29 30 26 31 30 22 63 98 100 100 98 100 98 99 98 100 100 97 94 98 100 99 99 98 90 87 96 83 67 69 72
23 23 21 16 17 20 28 36 36 30 29 31 32 33 35 41 39 22 24 30 25 30 29 28 33 81 86 86 98 98 100 100 100 100 100 98 99 99 100 100 99 98 93 94 94 89 68 66 77
28 25 22 19 21 22 26 36 36 29 27 32 30 29 33 35 40 33 20 24 26 29 30 29 28 40 64 75 91 95 100 100 100 99 100 100 100 99 99 99 100 94 88 96 98 92 80 64 74
30 27 27 24 31 29 36 39 39 31 24 26 28 30 30 32 37 43 27 22 24 24 28 29 30 27 24 35 54 96 98 98 98 100 100 100 99 99 98 99 98 98 98 97 97 96 81 64 63
31 35 31 28 30 35 36 43 38 34 28 23 21 28 29 29 34 40 36 22 23 20 24 25 28 30 27 25 31 58 90 100 99 100 100 100 98 99 98 98 98 98 96 94 99 88 71 75 62
37 38 36 35 45 51 47 45 40 35 28 25 22 25 26 26 28 36 39 20 20 17 20 23 25 29 31 31 28 26 34 63 96 96 98 99 98 99 98 99 99 99 97 94 98 78 75 67 62
41 47 46 56 60 49 39 45 38 35 28 29 31 28 30 29 28 33 36 18 18 18 19 22 26 27 30 32 35 34 30 27 40 71 94 96 99 99 100 100 100 93 89 88 90 73 70 67 62
40 46 47 46 55 45 46 48 38 31 26 28 30 37 36 26 28 30 35 30 17 20 24 24 26 28 29 32 36 38 39 37 31 28 35 44 66 84 98 94 96 90 79 79 79 78 77 74 57
48 57 45 48 54 56 46 41 38 35 32 33 36 34 35 29 24 29 31 34 32 22 24 26 28 28 29 31 34 36 40 42 44 40 36 35 40 47 56 56 63 65 69 73 80 80 75 66 54
49 44 51 54 51 50 46 50 39 33 33 30 30 29 34 29 32 30 31 32 36 32 35 33 38 47 50 42 35 35 38 41 46 49 49 49 44 41 43 48 51 54 61 69 76 77 60 48 55
54 52 46 44 44 45 46 41 36 34 34 36 32 32 36 34 33 30 31 34 36 39 41 39 40 44 47 50 53 50 43 40 40 44 50 54 55 59 53 46 47 52 56 58 58 49 50 58 89
49 52 52 53 49 53 52 46 39 37 36 33 32 30 30 35 32 29 30 34 37 40 41 43 45 46 48 52 53 56 58 58 60 54 51 50 52 62 68 65 71 49 48 49 52 59 69 91 90

GFSSGP_700_rhum_072.txt.gz
RH
7 6 4 6 25 21 19 20 22 26 32 24 24 25 36 32 37 41 29 32 25 37 43 61 72 83 82 56 56 50 59 76 80 86 80 66 50 31 18 7 5 12 16 12 11 11 11 12 13
8 7 10 17 22 16 17 24 23 27 27 25 25 26 36 52 27 38 39 43 35 36 51 66 84 91 86 71 68 68 68 71 76 84 84 79 67 46 12 9 8 14 14 13 12 12 14 15 15
8 7 22 29 21 16 17 25 26 27 26 26 34 26 32 40 36 41 44 50 49 49 64 72 95 99 94 95 90 83 78 78 76 72 75 77 66 45 10 11 12 18 16 14 14 16 17 17 17
9 8 17 25 19 23 23 25 28 29 31 26 27 51 38 37 41 42 42 56 59 63 65 92 97 76 90 75 97 90 86 75 66 66 67 75 53 28 8 14 15 16 16 16 18 19 18 19 20
10 9 20 20 21 25 25 28 28 28 29 27 29 42 38 42 45 46 45 55 59 60 65 63 55 92 79 76 92 95 93 83 80 74 68 59 46 19 8 12 19 18 16 20 20 20 22 23 25
19 14 19 15 20 26 27 29 29 30 36 28 31 35 42 44 49 50 48 53 62 62 63 72 75 86 92 85 91 95 99 96 91 76 75 68 61 16 11 15 39 17 18 22 23 25 27 29 30
18 23 16 16 19 26 29 30 33 30 33 38 31 35 46 45 50 53 53 49 43 52 57 76 79 70 78 95 95 98 98 92 98 96 93 84 70 27 18 39 28 21 23 26 27 31 33 34 34
18 25 21 19 19 22 27 30 27 25 31 26 28 40 56 44 50 49 48 50 50 39 55 63 87 91 84 93 94 97 97 96 100 98 89 95 54 14 30 25 21 25 28 31 35 39 38 38 38
13 24 20 18 20 22 26 29 28 24 24 26 27 30 36 45 48 36 28 34 40 50 60 55 82 92 96 100 99 99 96 99 99 99 98 99 76 23 45 24 25 30 34 38 44 43 42 41 39
20 21 19 20 20 24 26 26 25 25 30 26 26 26 30 43 39 28 39 58 54 72 79 77 88 94 90 92 99 100 99 99 100 100 100 96 43 34 36 24 30 37 44 48 47 44 41 40 38
22 21 19 24 24 27 28 30 28 27 31 34 33 27 28 42 36 27 31 58 65 74 80 81 90 88 81 98 95 99 100 100 100 100 100 97 53 37 29 28 44 46 52 49 45 41 41 40 38
20 16 19 22 26 25 28 32 28 29 27 24 25 26 27 40 36 26 25 40 50 53 58 68 85 84 87 100 100 100 100 99 98 100 99 98 43 39 30 36 42 53 54 48 47 46 42 39 35
14 20 24 19 21 18 26 21 30 22 23 25 24 25 26 41 39 30 26 22 25 26 25 28 43 64 97 97 97 99 98 100 100 98 99 80 45 37 39 41 50 59 52 53 50 46 40 36 37
26 20 24 23 27 25 20 24 30 19 28 23 22 27 28 44 33 28 28 27 27 24 26 30 59 99 99 91 100 96 99 100 100 99 97 61 46 42 38 50 63 57 57 56 56 46 43 45 43
22 21 25 25 26 26 19 26 30 29 20 29 29 28 36 45 24 23 24 26 29 26 22 28 62 97 100 95 100 99 99 100 100 100 100 89 78 52 41 61 64 60 59 56 56 54 58 51 49
29 30 26 22 22 24 24 23 26 31 29 27 29 33 37 45 27 20 20 21 28 22 25 26 36 95 97 99 98 100 98 100 100 100 96 69 67 55 77 73 66 60 58 59 63 70 65 49 48
34 26 26 26 27 31 25 25 31 30 29 33 34 35 38 42 26 21 21 26 29 21 25 21 36 85 92 91 100 98 98 100 99 100 70 62 57 55 70 69 66 63 63 64 70 74 65 58 55
28 29 27 25 24 23 30 30 27 33 29 33 32 34 36 42 36 20 24 28 28 24 24 22 40 77 92 95 96 100 100 98 100 100 93 78 93 90 81 80 74 68 67 73 77 75 68 68 61
30 26 26 21 27 29 26 28 28 29 32 28 28 33 33 38 41 30 20 25 25 24 23 24 39 89 98 100 98 98 100 98 100 100 100 99 96 97 87 93 87 86 80 84 90 75 75 78 70
36 30 28 26 33 24 22 22 23 31 33 33 37 31 34 35 36 43 22 22 24 22 23 23 22 75 99 98 98 99 96 100 99 100 100 100 94 86 93 99 100 99 99 95 93 86 94 88 83
38 34 31 28 27 32 28 21 20 27 32 31 28 31 31 30 34 39 38 20 23 20 22 22 24 40 79 96 98 98 100 100 99 100 99 99 89 88 91 100 99 99 100 94 96 92 94 95 85
36 36 39 35 35 26 30 20 21 32 31 29 31 28 30 31 31 36 41 28 23 19 19 24 22 23 30 63 87 96 96 99 99 100 100 100 98 94 96 99 99 99 98 94 95 98 97 91 94
34 32 41 39 36 34 31 25 21 27 33 31 28 29 29 31 30 34 40 38 22 20 17 20 24 24 24 26 37 75 90 100 100 100 100 100 100 100 94 96 99 97 99 91 96 97 93 81 94
46 44 42 42 37 38 33 26 22 24 30 30 29 28 30 26 26 29 40 39 20 19 16 16 22 26 28 28 27 34 44 80 92 96 99 100 100 99 100 99 98 97 97 91 98 97 88 93 83
42 37 37 42 44 39 30 32 26 33 33 32 33 32 36 30 25 27 33 35 19 17 17 17 20 25 26 30 32 32 26 29 51 80 98 93 98 100 98 99 99 98 97 99 98 99 98 95 93
41 38 34 41 40 32 39 33 32 34 33 25 29 26 35 36 33 25 32 36 26 17 19 18 21 22 26 29 31 35 37 30 26 34 69 91 98 95 98 96 100 91 98 99 100 98 96 100 91
45 44 40 38 46 45 35 38 38 36 34 36 36 39 37 38 35 25 29 33 34 20 20 23 24 25 26 28 30 33 35 40 40 32 29 34 51 60 76 81 89 96 100 92 97 90 89 78 75
46 44 50 47 49 47 32 34 32 34 36 32 34 33 34 37 35 26 26 32 33 33 21 25 26 27 29 30 30 31 34 36 40 44 43 41 37 33 36 45 60 76 86 93 88 85 80 75 64
50 53 46 43 43 40 40 32 36 36 35 37 38 38 38 33 36 35 34 32 31 34 29 24 27 34 39 42 45 43 35 32 34 37 41 47 50 56 42 37 40 52 62 66 67 67 76 76 70
46 47 47 46 41 43 40 37 39 40 40 38 39 39 36 36 36 36 34 32 33 33 36 38 39 37 42 48 51 53 54 51 50 47 42 42 45 52 54 55 48 46 49 56 60 60 61 68 72

GFSSGP_700_rhum_075.txt.gz
RH
8 7 5 9 26 18 14 15 17 17 20 27 34 33 34 38 38 43 53 27 23 34 32 40 58 92 86 77 54 50 57 57 50 75 79 79 76 56 24 6 5 6 10 10 11 11 11 10 11
8 7 7 33 19 14 12 17 17 18 22 30 34 32 34 38 50 58 41 25 27 40 41 38 67 96 91 82 66 59 64 61 78 77 78 86 85 66 33 8 4 10 42 13 12 12 12 12 13
9 8 35 25 19 14 13 17 18 21 26 26 29 43 46 48 59 34 35 36 35 49 50 55 89 96 96 87 98 88 83 93 89 81 90 88 82 70 38 11 6 17 30 13 12 13 14 15 16
10 19 29 19 15 16 18 16 21 21 24 35 33 32 55 37 40 41 45 42 41 49 58 61 64 78 82 100 98 97 90 99 86 76 78 74 77 67 34 13 9 18 20 13 14 15 17 17 19
10 28 22 18 16 16 20 19 20 21 23 31 38 31 36 48 35 42 46 45 45 48 59 62 60 59 57 73 83 74 95 94 83 88 76 70 74 55 23 23 10 16 16 14 16 18 18 21 23
30 25 20 15 12 15 20 21 23 23 25 32 39 38 41 50 36 43 46 47 44 47 62 62 58 61 65 80 90 93 98 96 82 80 74 72 69 53 21 39 12 18 17 17 20 19 23 24 26
32 23 19 15 13 14 20 25 27 28 28 25 34 39 43 50 36 41 43 42 45 48 47 48 58 66 70 70 81 91 100 94 84 82 84 72 61 68 53 16 15 19 19 21 22 24 26 28 30
28 23 20 16 15 14 19 25 27 31 27 28 33 37 40 48 34 39 33 24 26 32 48 42 51 70 78 71 84 98 98 99 97 95 92 78 72 81 57 18 31 25 24 24 27 29 32 33 33
30 23 20 16 15 15 18 22 25 31 31 30 40 40 37 26 31 40 28 25 40 42 33 36 49 62 82 78 86 90 91 98 99 98 97 98 98 91 70 29 39 40 26 30 31 35 36 36 36
28 21 19 17 16 16 16 22 26 27 26 31 34 51 30 26 31 40 27 25 45 46 40 57 63 63 66 60 84 99 100 94 100 98 100 98 98 80 28 55 26 28 30 34 38 40 40 40 39
26 23 19 18 19 18 18 21 23 27 27 26 38 35 45 25 30 41 27 24 43 56 62 69 73 71 70 69 66 57 70 99 96 98 100 97 99 47 58 47 29 30 36 42 45 45 44 41 38
23 23 21 20 17 21 21 20 23 26 28 30 36 24 24 24 33 41 29 24 29 46 49 53 53 53 73 87 92 96 100 89 100 97 100 100 99 71 67 48 34 33 40 48 48 46 42 40 37
24 22 21 19 19 20 22 22 23 26 25 27 38 22 23 26 40 34 29 24 26 26 23 25 29 36 79 89 86 98 98 98 100 100 100 100 100 58 63 47 34 39 47 50 48 45 43 40 37
23 23 24 22 20 20 21 22 22 23 26 36 40 21 30 32 36 23 26 27 26 26 25 22 27 47 69 95 89 98 100 99 97 100 100 100 98 73 55 46 44 44 52 50 49 47 43 38 36
28 26 24 25 22 21 22 24 21 20 22 33 38 25 34 34 36 18 21 23 24 27 20 22 29 34 86 87 96 97 100 99 99 100 100 99 98 94 60 48 48 51 54 50 53 49 41 38 39
33 30 28 23 22 21 22 21 21 23 35 40 46 52 34 34 34 22 16 17 19 28 19 24 24 28 84 91 97 100 98 100 100 98 100 98 86 54 47 50 48 57 58 55 56 50 44 48 50
33 28 24 24 22 22 24 25 22 34 37 36 47 57 35 34 28 21 16 15 21 26 21 22 22 39 75 88 99 100 99 97 99 99 100 100 98 73 51 53 58 63 57 56 56 52 59 60 58
29 26 26 25 22 23 24 29 24 26 34 39 40 51 63 33 32 32 16 20 24 24 21 22 21 39 73 99 96 96 100 98 100 100 99 100 98 78 65 73 68 68 82 60 58 63 67 71 63
32 27 24 23 22 22 24 23 21 24 24 33 36 43 56 61 35 35 33 15 20 22 20 20 21 44 80 96 98 98 100 98 98 98 100 94 87 77 72 81 73 87 76 63 66 70 72 76 68
36 32 28 26 23 27 24 22 20 20 21 25 29 34 46 61 44 33 36 29 17 20 18 20 22 36 78 79 92 97 99 100 100 100 99 86 81 67 69 79 74 78 71 75 78 78 78 80 77
39 38 33 29 26 26 28 25 22 21 21 23 26 30 32 48 65 31 34 38 20 18 16 18 20 21 66 89 87 99 98 100 99 100 99 97 97 95 72 73 73 87 86 90 86 88 89 87 79
42 37 34 32 30 28 25 22 21 19 18 24 28 32 34 40 56 34 31 36 34 19 16 15 21 21 27 55 68 87 88 94 97 99 100 100 100 100 98 87 84 96 94 90 96 85 82 83 94
42 38 34 32 34 32 29 26 24 22 19 21 26 25 28 41 51 35 30 36 41 19 17 13 22 22 21 23 30 62 88 95 100 100 100 100 100 100 96 86 95 100 92 90 98 88 86 81 92
43 37 36 33 34 33 31 30 26 21 23 26 25 24 25 33 50 51 29 36 38 22 18 13 19 24 26 25 24 28 47 75 87 88 100 100 100 100 96 84 91 99 96 91 98 98 97 82 97
40 38 37 39 37 37 29 30 29 24 27 28 28 28 26 31 47 61 28 28 34 23 17 14 14 20 23 27 30 28 26 34 61 91 90 98 98 98 98 98 92 91 91 99 93 92 90 90 95
42 39 35 46 45 33 30 27 26 27 28 29 30 30 28 38 48 50 33 25 32 30 16 15 14 20 22 25 29 32 35 28 26 36 68 90 88 96 94 99 100 99 100 99 97 99 100 98 99
54 40 34 33 46 44 37 31 31 32 33 31 32 35 32 34 37 50 41 24 31 33 15 17 16 18 22 25 28 30 32 36 36 27 29 37 69 70 82 97 100 100 100 99 99 100 100 98 93
52 52 40 39 52 52 35 29 37 32 33 32 30 32 33 32 38 45 37 26 30 34 32 18 20 20 22 24 25 28 32 35 36 40 40 40 35 34 41 44 67 93 100 100 99 98 93 99 98
47 44 52 44 40 45 48 36 32 33 33 35 35 37 37 40 44 43 38 33 30 34 34 26 23 25 26 27 28 28 29 30 32 36 39 42 43 43 44 38 37 48 65 89 88 86 91 92 98
51 40 50 47 47 44 40 40 37 38 45 46 46 45 40 43 40 44 40 36 34 35 34 34 22 24 26 30 35 39 44 45 41 42 36 35 38 45 48 52 45 39 38 48 73 81 79 86 84